カタログに戻る

STARLINK-5971

運用中通信VLEO
NORAD 56917·PAYLOAD·🇺🇸 United States

打ち上げ Jun 12, 2023 から Cape Canaveral Space Force Station

Loading…

次のパス (今後24時間)

TLE

最新Source: CelesTrak SupGP

元期: Sep 15, 2026, 02:22 UTC

1 56917C 23083AT  26258.09909722 -.00020384  00000+0 -73809-3 0  2581
2 56917  43.0036  81.1954 0002131 278.2864  78.5267 15.27596770    13

AllMySatでSTARLINK-5971をリアルタイム追跡

Download on the App Store